Location: Pel�-Koumbol�
(14.9505°N, 3.0798°W)
Time: 14:00:40
(UTC+00:00)

Cosmos 1869 - Pass Details

Date: 17 February 2020
Orbit: 524 x 559 km, 82.5° (Epoch: 29 March)

Event Time Altitude Azimuth Distance (km) Brightness Sun altitude
Rises 05:47:25 0° 202° (SSW) 2,727 6.7 -12.4°
Reaches altitude 10° 05:49:46 10° 213° (SSW) 1,831 5.7 -11.8°
Maximum altitude 05:53:21 31° 276° (W) 984 4.0 -11.0°
Drops below altitude 10° 05:56:55 10° 339° (NNW) 1,820 5.7 -10.1°
Sets 05:59:15 0° 350° (N) 2,708 6.6 -9.5°
